CZ-2D R/B (45252 NORAD) Tracking and Keplerian Element Data

This shows tracking and keplerian element data for the satellite.

Feedback or suggestion? Click here.




ElementValue
Catalog45252
NameCZ-2D R/B
Epoch Orbit2018
Epoch Day182.85197703
Epoch Year2020
RAAN323.1335
Inclination35.0032
Eccentricity0.000509
Argument of Perigee44.5304
Mean Anonmoly315.5822
Mean Motion15.296242
Decay Rate1.44E-05
L11 45252U 20014D 20182.85197703 .00001440 00000-0 50233-4 0 9994
L22 45252 35.0032 323.1335 0005090 44.5304 315.5822 15.29624200 20185

Live tracking and technical data element details for CZ-2D R/B (NORAD 45252). CZ-2D R/B can be tracked NOW for your location showing map with azimuth and elevation plus other details from your city location.

Track the satellite on the map from your city or location and see movement details for azimuth, elevation, latitude, longitude, range, height, and movement on the map or in text.







IsCatalogInMostPopularTable: catalog: 45252, numindb: 29
Update: records affected: 1



GetName: 45252 CZ-2D R/B

Hit Count: updated at: Wed, 08 Jul 2020 05:40:26 GMT